• In Deutschland
  • Länderverzeichnis
  • Für 7 Tage
  • Wassertemperatur
  • Satellitenkarten
  • Wetterkarte
  • Widgets
  • user-avatar
    Anmelden

    Stündliche Wetter Lankaran

    Heute, 24 November, Freitag

    Zeit Temperatur Niederschläge Wind Luftdruck Luftfeuchtigkeit
    00:00 -1°C° 0,1 mm 3 m/S 630 mmHg 57%
    01:00 -1°C° 0,1 mm 3 m/S 630 mmHg 58%
    02:00 -1°C° 0,1 mm 3 m/S 630 mmHg 58%
    03:00 -3°C° 0 mm 4 m/S 630 mmHg 54%
    04:00 -3°C° 0 mm 4 m/S 630 mmHg 55%
    05:00 -3°C° 0 mm 4 m/S 630 mmHg 56%
    06:00 -3°C° 0 mm 4 m/S 630 mmHg 57%
    07:00 -3°C° 0 mm 4 m/S 631 mmHg 54%
    08:00 -2°C° 0 mm 4 m/S 631 mmHg 52%
    09:00 -1°C° 0 mm 4 m/S 631 mmHg 49%
    10:00 -1°C° 0,1 mm 4 m/S 631 mmHg 48%
    11:00 -1°C° 0,1 mm 4 m/S 631 mmHg 46%
    12:00 0°C° 0,1 mm 4 m/S 631 mmHg 45%
    13:00 -1°C° 0,1 mm 4 m/S 631 mmHg 48%
    14:00 -1°C° 0,1 mm 4 m/S 631 mmHg 51%
    15:00 -2°C° 0,1 mm 4 m/S 631 mmHg 54%
    16:00 -2°C° 0,3 mm 4 m/S 631 mmHg 60%
    17:00 -2°C° 0,3 mm 3 m/S 632 mmHg 65%
    18:00 -4°C° 0,3 mm 3 m/S 632 mmHg 71%
    19:00 -4°C° 0,1 mm 3 m/S 632 mmHg 71%
    20:00 -4°C° 0,1 mm 3 m/S 632 mmHg 71%
    21:00 -5°C° 0,1 mm 3 m/S 632 mmHg 71%
    22:00 -5°C° 0 mm 3 m/S 632 mmHg 68%
    23:00 -5°C° 0 mm 3 m/S 632 mmHg 64%

    Morgen, 25 November, Samstag

    Zeit Temperatur Niederschläge Wind Luftdruck Luftfeuchtigkeit
    00:00 -5°C° 0 mm 3 m/S 632 mmHg 61%
    01:00 -6°C° 0 mm 3 m/S 632 mmHg 60%
    02:00 -6°C° 0 mm 3 m/S 632 mmHg 59%
    03:00 -6°C° 0 mm 3 m/S 633 mmHg 58%
    04:00 -7°C° 0 mm 4 m/S 633 mmHg 58%
    05:00 -7°C° 0 mm 4 m/S 633 mmHg 58%
    06:00 -7°C° 0 mm 4 m/S 634 mmHg 58%
    07:00 -5°C° 0 mm 4 m/S 635 mmHg 54%
    08:00 -5°C° 0 mm 5 m/S 635 mmHg 50%
    09:00 -2°C° 0 mm 5 m/S 636 mmHg 46%
    10:00 -2°C° 0 mm 5 m/S 637 mmHg 44%
    11:00 -1°C° 0 mm 5 m/S 637 mmHg 41%
    12:00 0°C° 0 mm 5 m/S 637 mmHg 38%
    13:00 -1°C° 0 mm 5 m/S 637 mmHg 39%
    14:00 -1°C° 0 mm 5 m/S 637 mmHg 41%
    15:00 -1°C° 0 mm 4 m/S 637 mmHg 42%
    16:00 -2°C° 0 mm 4 m/S 638 mmHg 48%
    17:00 -4°C° 0 mm 3 m/S 638 mmHg 53%
    18:00 -5°C° 0 mm 3 m/S 638 mmHg 59%
    19:00 -5°C° 0 mm 2 m/S 638 mmHg 60%
    20:00 -5°C° 0 mm 2 m/S 638 mmHg 60%
    21:00 -5°C° 0 mm 2 m/S 638 mmHg 60%
    22:00 -5°C° 0 mm 2 m/S 638 mmHg 62%
    23:00 -5°C° 0 mm 2 m/S 638 mmHg 63%

    übermorgen, 26 November, Sonntag

    Zeit Temperatur Niederschläge Wind Luftdruck Luftfeuchtigkeit
    00:00 -3°C° 0 mm 1 m/S 638 mmHg 64%
    01:00 -3°C° 0 mm 1 m/S 638 mmHg 65%
    02:00 -4°C° 0 mm 1 m/S 638 mmHg 65%
    03:00 -4°C° 0 mm 1 m/S 638 mmHg 66%
    04:00 -5°C° 0 mm 2 m/S 637 mmHg 63%
    05:00 -5°C° 0 mm 2 m/S 637 mmHg 61%
    06:00 -5°C° 0 mm 2 m/S 637 mmHg 58%
    07:00 -3°C° 0 mm 2 m/S 637 mmHg 53%
    08:00 -2°C° 0 mm 2 m/S 638 mmHg 49%
    09:00 +1°C° 0 mm 2 m/S 638 mmHg 44%
    10:00 +2°C° 0 mm 2 m/S 638 mmHg 42%
    11:00 +3°C° 0 mm 2 m/S 638 mmHg 40%
    12:00 +3°C° 0 mm 3 m/S 637 mmHg 37%
    13:00 +3°C° 0 mm 3 m/S 637 mmHg 40%
    14:00 +3°C° 0 mm 3 m/S 636 mmHg 44%
    15:00 +3°C° 0 mm 3 m/S 636 mmHg 47%
    16:00 +2°C° 0 mm 2 m/S 636 mmHg 53%
    17:00 +1°C° 0 mm 2 m/S 635 mmHg 60%
    18:00 -1°C° 0 mm 2 m/S 635 mmHg 67%
    19:00 -1°C° 0 mm 2 m/S 635 mmHg 65%
    20:00 -1°C° 0 mm 2 m/S 635 mmHg 62%
    21:00 -2°C° 0 mm 2 m/S 635 mmHg 60%
    22:00 -2°C° 0 mm 2 m/S 635 mmHg 57%
    23:00 -2°C° 0 mm 2 m/S 634 mmHg 54%

    27 November, Montag

    Zeit Temperatur Niederschläge Wind Luftdruck Luftfeuchtigkeit
    00:00 -2°C° 0 mm 2 m/S 634 mmHg 51%
    01:00 -2°C° 0 mm 3 m/S 634 mmHg 50%
    02:00 -2°C° 0 mm 3 m/S 634 mmHg 49%
    03:00 -2°C° 0 mm 3 m/S 634 mmHg 48%
    04:00 -2°C° 0 mm 3 m/S 634 mmHg 49%
    05:00 -2°C° 0 mm 3 m/S 634 mmHg 50%
    06:00 -2°C° 0 mm 3 m/S 634 mmHg 51%
    07:00 -1°C° 0 mm 3 m/S 634 mmHg 47%
    08:00 +1°C° 0 mm 3 m/S 635 mmHg 43%
    09:00 +3°C° 0 mm 3 m/S 636 mmHg 39%
    10:00 +4°C° 0 mm 3 m/S 635 mmHg 39%
    11:00 +4°C° 0 mm 3 m/S 635 mmHg 38%
    12:00 +5°C° 0 mm 3 m/S 635 mmHg 37%
    13:00 +5°C° 0 mm 3 m/S 635 mmHg 38%
    14:00 +5°C° 0 mm 3 m/S 634 mmHg 40%
    15:00 +5°C° 0 mm 3 m/S 634 mmHg 42%
    16:00 +4°C° 0 mm 2 m/S 634 mmHg 48%
    17:00 +2°C° 0 mm 2 m/S 633 mmHg 54%
    18:00 +1°C° 0 mm 2 m/S 633 mmHg 59%
    19:00 -1°C° 0 mm 2 m/S 633 mmHg 60%
    20:00 -1°C° 0 mm 2 m/S 633 mmHg 60%
    21:00 -1°C° 0 mm 2 m/S 634 mmHg 60%
    22:00 -1°C° 0 mm 2 m/S 633 mmHg 61%
    23:00 -1°C° 0 mm 2 m/S 633 mmHg 62%

    28 November, Dienstag

    Zeit Temperatur Niederschläge Wind Luftdruck Luftfeuchtigkeit
    00:00 -2°C° 0 mm 2 m/S 633 mmHg 62%
    01:00 -2°C° 0 mm 2 m/S 633 mmHg 66%
    02:00 -2°C° 0 mm 2 m/S 633 mmHg 69%
    03:00 -2°C° 0 mm 2 m/S 633 mmHg 72%
    04:00 -2°C° 0 mm 2 m/S 633 mmHg 75%
    05:00 -2°C° 0 mm 2 m/S 633 mmHg 78%
    06:00 -2°C° 0 mm 2 m/S 634 mmHg 81%
    07:00 -1°C° 0,1 mm 3 m/S 634 mmHg 79%
    08:00 0°C° 0,1 mm 3 m/S 635 mmHg 76%
    09:00 +2°C° 0,1 mm 3 m/S 635 mmHg 74%
    10:00 +2°C° 0,1 mm 3 m/S 635 mmHg 72%
    11:00 +3°C° 0,1 mm 3 m/S 635 mmHg 71%
    12:00 +4°C° 0,1 mm 3 m/S 635 mmHg 69%
    13:00 +3°C° 0,1 mm 3 m/S 635 mmHg 70%
    14:00 +3°C° 0,1 mm 3 m/S 635 mmHg 71%
    15:00 +3°C° 0,1 mm 3 m/S 635 mmHg 72%
    16:00 +3°C° 0,1 mm 3 m/S 635 mmHg 76%
    17:00 +3°C° 0,1 mm 2 m/S 635 mmHg 81%
    18:00 +2°C° 0,1 mm 2 m/S 635 mmHg 85%
    19:00 +2°C° 0,1 mm 2 m/S 635 mmHg 85%
    20:00 +2°C° 0,1 mm 2 m/S 635 mmHg 86%
    21:00 +2°C° 0,1 mm 2 m/S 635 mmHg 86%
    22:00 +2°C° 0,1 mm 2 m/S 635 mmHg 85%
    23:00 +2°C° 0,1 mm 2 m/S 634 mmHg 85%

    29 November, Mittwoch

    Zeit Temperatur Niederschläge Wind Luftdruck Luftfeuchtigkeit
    00:00 +1°C° 0,1 mm 2 m/S 634 mmHg 84%
    01:00 +1°C° 0 mm 2 m/S 634 mmHg 82%
    02:00 +1°C° 0 mm 2 m/S 634 mmHg 79%
    03:00 +1°C° 0 mm 2 m/S 634 mmHg 76%
    04:00 +1°C° 0 mm 2 m/S 634 mmHg 75%
    05:00 +1°C° 0 mm 2 m/S 634 mmHg 74%
    06:00 -1°C° 0 mm 3 m/S 634 mmHg 72%
    07:00 +1°C° 0 mm 3 m/S 635 mmHg 66%
    08:00 +3°C° 0 mm 3 m/S 635 mmHg 59%
    09:00 +4°C° 0 mm 3 m/S 636 mmHg 53%
    10:00 +7°C° 0 mm 3 m/S 636 mmHg 50%
    11:00 +8°C° 0 mm 3 m/S 635 mmHg 48%
    12:00 +9°C° 0 mm 3 m/S 635 mmHg 45%
    13:00 +8°C° 0 mm 3 m/S 635 mmHg 48%
    14:00 +8°C° 0 mm 3 m/S 635 mmHg 50%
    15:00 +8°C° 0 mm 3 m/S 635 mmHg 53%
    16:00 +7°C° 0 mm 2 m/S 634 mmHg 59%
    17:00 +5°C° 0 mm 2 m/S 634 mmHg 65%
    18:00 +4°C° 0 mm 2 m/S 634 mmHg 71%
    19:00 +4°C° 0 mm 2 m/S 634 mmHg 70%
    20:00 +4°C° 0 mm 2 m/S 634 mmHg 69%
    21:00 +3°C° 0 mm 2 m/S 633 mmHg 68%
    22:00 +3°C° 0 mm 2 m/S 633 mmHg 66%
    23:00 +4°C° 0 mm 2 m/S 633 mmHg 64%
    Mehr zeigen